Flag for Italy Weather past 2 weeks in Cagliari, Italy

Now
57 °F

Clear.


Feels Like: 55 °F
Forecast: 47 / 62 °F
Wind: 12 mph from Northwest

Location: Cagliari / Elmas

Current Time: Dec 20, 2014 at 7:54:04 PM

Latest Report: Dec 20, 2014 at 7:20 PM


Visibility: 10 mi

Pressure: 30.27 "Hg

Humidity: 82%

Dew point: 52 °F

Location of CagliariLocation

Historic Weather in Cagliari — Graph

°F

Cagliari temperature yesterday

Maximum temperature yesterday: 64 °F (at 1:20 PM)
Minimum temperature yesterday: 43 °F (at 5:20 AM)
Average temperature yesterday: 53 °F

Past Weeks' High & Low Weather Summary

 TemperatureHumidityPressure
High64 °F (Dec 15, 10:50 AM)100% (Dec 5, 7:20 PM)30.33 "Hg (Dec 5, 7:20 PM)
Low39 °F (Dec 11, 4:50 AM)48% (Dec 10, 2:20 PM)29.77 "Hg (Dec 9, 12:50 PM)
Average53 °F88%30.06 "Hg
* Reported Dec 5 6:20 PM — Dec 20 6:20 PM, Cagliari, Weather by CustomWeather, © 2014

Note: Actual official high and low records may vary slightly from our data, if they occured in-between our weather recording intervals... More about our weather records

Advertising

Cagliari weather history for previous 24 hours

 ConditionsComfort  
Time TempWeatherWind HumidityBarometerVisibility
6:20 PM
Dec 20
59 °FPassing clouds.12 mph82%30.24 "HgN/A
5:50 PM59 °FClear.12 mph82%30.24 "Hg10 mi
5:20 PM59 °FClear.12 mph82%30.24 "Hg10 mi
4:50 PM61 °FPassing clouds.16 mph77%30.24 "HgN/A
4:20 PM61 °FPassing clouds.18 mph77%30.24 "HgN/A
3:50 PM63 °FPassing clouds.17 mph73%30.24 "HgN/A
3:20 PM63 °FPassing clouds.17 mph73%30.24 "HgN/A
2:50 PM63 °FPassing clouds.13 mph77%30.24 "HgN/A
2:20 PM63 °FPassing clouds.14 mph77%30.24 "HgN/A
1:50 PM63 °FPassing clouds.16 mph77%30.24 "HgN/A
1:20 PM63 °FPassing clouds.15 mph73%30.27 "HgN/A
12:50 PM64 °FPassing clouds.17 mph73%30.27 "HgN/A
12:20 PM63 °FPassing clouds.16 mph73%30.27 "HgN/A
11:50 AM63 °FPassing clouds.15 mph77%30.30 "HgN/A
11:20 AM63 °FPassing clouds.12 mph77%30.30 "HgN/A
10:50 AM63 °FPassing clouds.9 mph77%30.30 "HgN/A
10:20 AM61 °FPassing clouds.10 mph77%30.30 "HgN/A
9:50 AM59 °FPassing clouds.7 mph82%30.30 "HgN/A
9:20 AM57 °FPassing clouds.6 mph88%30.30 "HgN/A
8:50 AM55 °FPassing clouds.8 mph88%30.30 "HgN/A
8:20 AM54 °FPassing clouds.3 mph88%30.30 "HgN/A
7:50 AM52 °FPassing clouds.5 mph94%30.27 "HgN/A
7:20 AM54 °FPassing clouds.7 mph94%30.27 "HgN/A
6:50 AM54 °FPassing clouds.10 mph94%30.27 "HgN/A
6:20 AM55 °FPassing clouds.8 mph88%30.27 "HgN/A
5:50 AM55 °FPassing clouds.12 mph88%30.27 "HgN/A
5:20 AM55 °FPassing clouds.12 mph88%30.27 "HgN/A
4:50 AM55 °FPassing clouds.9 mph94%30.27 "HgN/A
4:20 AM55 °FPassing clouds.10 mph94%30.27 "HgN/A
3:50 AM55 °FPassing clouds.12 mph94%30.27 "HgN/A
3:20 AM55 °FPassing clouds.9 mph94%30.27 "HgN/A
2:50 AM55 °FPassing clouds.10 mph94%30.30 "HgN/A
2:20 AM57 °FPassing clouds.10 mph94%30.30 "HgN/A
1:50 AM57 °FPassing clouds.12 mph94%30.30 "HgN/A
1:20 AM55 °FPassing clouds.8 mph100%30.30 "HgN/A
12:50 AM55 °FPassing clouds.9 mph100%30.30 "HgN/A
12:20 AM54 °FPassing clouds.12 mph100%30.30 "HgN/A
11:50 PM
Dec 19
55 °FPassing clouds.12 mph94%30.30 "HgN/A
11:20 PM55 °FPassing clouds.13 mph100%30.30 "HgN/A
10:50 PM55 °FClear.10 mph94%30.30 "Hg10 mi
10:20 PM54 °FClear.9 mph100%30.30 "Hg10 mi
9:50 PM54 °FClear.9 mph100%30.30 "Hg10 mi
9:20 PM55 °FClear.10 mph94%30.30 "Hg10 mi
8:50 PM54 °FClear.5 mph100%30.30 "Hg10 mi
8:20 PM55 °FClear.8 mph94%30.30 "Hg10 mi
7:50 PM57 °FClear.9 mph94%30.27 "Hg10 mi
7:20 PM57 °FPassing clouds.8 mph94%30.27 "HgN/A
Weather by CustomWeather, © 2014

See weather overviewHow to use our weather pages